Location: *
(44.9308°N, 123.0197°W)
Time: 22:17:27
(UTC+00:00)

SJ-6F - Pass Details

Date: 09 April 2020
Orbit: 572 x 593 km, 97.7° (Epoch: 02 June)

Event Time Altitude Azimuth Distance (km) Brightness Sun altitude
Rises 12:52:33 0° 10° (N) 2,819 8.4 -8.4°
Reaches altitude 10° 12:54:43 10° 7° (N) 1,918 7.5 -8.0°
Maximum altitude 12:58:51 66° 286° (WNW) 644 4.5 -7.3°
Drops below altitude 10° 13:02:58 10° 204° (SSW) 1,914 6.7 -6.6°
Sets 13:05:08 0° 202° (SSW) 2,812 7.6 -6.3°
